Location: Cazarilh
(42.9578°N, 0.5819°E)
Time: 22:05:02
(UTC+00:00)

NOSS 3-2 (A) - Pass Details

Date: 11 December 2019
Orbit: 814 x 1394 km, 63.4° (Epoch: 07 January)

Event Time Altitude Azimuth Distance (km) Brightness Sun altitude
Rises 06:36:29 0° 212° (SSW) 3,363 6.2 -7.6°
Reaches altitude 10° 06:38:49 10° 212° (SSW) 2,468 5.6 -7.2°
Maximum altitude 06:44:30 86° 126° (SE) 920 3.5 -6.3°
Drops below altitude 10° 06:50:58 10° 37° (NE) 2,792 6.0 -5.2°
Sets 06:53:45 0° 37° (NE) 3,836 6.7 -4.8°
